RH
60 54 54 57 52 54 57 56 58 50 45 46 48 48 49 52 53 53 53 55 56 55 53 53 54 54 54
60 61 56 55 58 57 49 44 55 49 47 47 49 51 54 54 56 55 56 57 55 55 53 54 54 55 55
66 68 67 67 64 62 60 63 51 52 50 53 54 55 57 57 58 58 59 60 58 56 56 55 56 55 55
73 73 71 72 70 71 71 70 70 56 59 61 64 63 64 63 64 66 65 62 59 57 56 56 57 57 55
81 79 76 75 72 75 76 79 80 83 82 82 82 86 83 75 72 68 63 62 60 59 59 58 59 57 55
88 85 78 76 75 81 88 92 93 89 93 91 90 88 85 85 66 62 64 63 62 62 62 62 64 61 58
81 80 80 79 82 87 92 94 95 91 94 95 90 83 79 62 67 64 66 64 60 61 62 62 62 61 62
78 76 77 75 82 84 89 93 90 88 89 98 86 88 73 74 69 64 58 58 62 64 65 65 64 65 63
68 67 63 60 68 82 89 92 93 87 89 94 92 85 81 74 76 65 63 64 65 65 64 66 68 68 72
72 71 77 82 78 85 88 94 95 96 88 94 94 95 96 91 89 83 83 71 65 66 69 66 68 77 81
80 81 88 86 84 84 84 90 98 97 83 85 99 95 97 94 96 85 82 81 76 77 77 72 71 71 78
81 86 87 86 86 86 85 87 91 90 85 86 98 99 94 93 92 83 80 80 86 89 85 81 77 77 76
87 88 89 91 89 91 88 88 91 88 76 92 97 97 100 97 95 90 87 83 84 94 88 89 85 84 87
88 91 94 96 96 98 98 98 99 96 88 95 96 98 100 98 96 94 87 95 86 86 87 88 84 79 83
97 97 95 95 96 98 98 98 100 99 97 94 91 95 97 97 97 90 90 90 86 84 87 90 84 82 80
95 96 98 99 98 98 99 100 99 99 99 97 98 98 95 84 68 88 85 88 84 85 89 93 88 77 72
96 97 98 98 95 98 98 99 99 98 97 98 100 100 98 95 85 62 87 86 89 88 86 91 93 83 78
Wind_Speed
2 2 2 3 1 1 1 1 2 5 7 8 9 9 9 11 12 13 15 15 16 18 16 17 18 19 21
2 2 2 2 2 1 2 2 1 6 9 8 9 9 10 14 13 14 16 15 16 16 16 17 18 19 20
3 1 1 1 2 1 1 2 2 6 8 10 10 10 11 16 16 15 16 15 17 17 18 19 17 17 20
3 3 2 1 1 1 2 1 2 3 6 6 8 13 15 15 14 15 16 16 17 19 20 19 18 17 20
3 2 2 1 2 1 1 2 3 1 2 2 4 4 5 9 11 16 18 19 19 20 22 22 20 19 21
3 2 3 3 3 3 2 0 3 1 2 4 2 3 4 3 14 20 21 20 18 17 19 20 21 23 24
5 5 4 6 4 3 3 3 3 2 0 4 1 4 3 7 18 18 15 14 15 20 22 24 24 24 25
5 5 4 5 4 4 4 2 3 1 1 3 2 3 6 7 17 13 14 18 20 21 23 23 23 24 26
7 6 5 3 3 3 2 1 1 1 2 1 2 5 5 7 5 10 18 20 21 24 22 24 25 25 14
3 6 5 8 11 5 3 2 1 3 1 2 3 2 4 3 3 5 6 15 20 23 23 23 22 9 9
3 3 3 4 2 3 2 3 3 2 4 2 2 3 3 6 2 4 5 8 10 12 18 21 21 19 11
3 2 3 3 2 1 2 2 2 5 6 2 3 3 6 7 8 5 7 9 7 8 8 12 20 22 22
3 2 2 2 2 1 0 2 4 4 5 3 3 4 4 5 7 7 12 7 8 6 7 8 10 10 13
2 2 2 2 1 1 1 1 1 3 4 3 5 4 3 5 6 9 8 6 8 9 8 8 9 9 11
3 3 2 1 1 1 0 1 1 2 4 3 4 5 5 5 6 7 8 8 8 11 11 11 10 10 11
3 3 2 2 1 1 1 2 2 2 3 3 3 4 3 5 8 6 6 7 10 11 11 11 13 11 11
3 3 2 2 1 1 1 1 2 3 4 2 1 1 5 7 4 10 8 9 10 11 10 10 13 14 13
Wind_Direction
99 109 112 140 118 93 82 291 319 327 328 329 331 324 322 329 322 330 327 324 326 319 316 315 319 313 318
113 132 127 180 160 69 309 295 312 321 316 330 323 321 331 331 325 324 326 324 321 313 307 307 314 319 316
120 82 113 111 65 25 315 324 316 313 323 323 324 329 333 325 316 322 324 318 313 303 303 305 305 308 303
91 115 113 81 82 98 331 343 305 306 319 342 345 330 326 325 330 325 319 309 304 310 303 302 303 297 295
111 105 108 136 167 125 234 280 269 242 328 297 304 309 310 322 323 313 313 315 309 310 306 302 302 299 292
109 158 180 178 164 174 195 216 324 242 340 291 236 282 297 308 318 318 313 313 308 307 313 313 314 310 304
156 186 174 177 165 184 204 192 231 259 169 273 278 305 303 314 313 320 325 320 329 331 322 316 310 306 304
174 172 181 185 180 184 184 198 264 269 91 279 339 289 311 307 307 317 331 326 322 322 317 309 311 311 305
185 192 191 145 143 132 127 89 327 276 88 239 286 299 290 293 290 315 327 323 315 315 317 316 309 305 312
90 78 77 87 80 77 120 104 48 328 214 348 279 348 306 265 290 299 301 305 315 314 313 315 312 307 296
114 109 114 102 98 100 124 141 160 230 269 315 306 301 239 299 247 294 294 303 306 303 298 308 309 309 306
137 132 152 155 126 138 216 217 212 237 282 281 256 241 289 299 302 304 305 288 279 285 286 290 301 304 303
145 173 185 128 157 237 338 288 288 267 263 246 198 263 268 282 290 310 306 305 294 276 287 293 298 303 302
168 150 143 143 164 119 208 328 355 293 271 262 244 179 263 250 282 291 289 292 296 295 294 295 293 288 280
157 176 179 165 190 131 29 354 163 284 295 316 286 239 231 247 284 276 288 288 291 307 311 299 294 289 282
172 164 178 178 211 324 189 187 243 272 276 279 321 335 316 272 266 290 294 298 309 306 299 297 296 295 293
147 152 174 187 267 249 280 226 274 256 264 241 278 2 311 305 264 303 308 303 302 301 298 289 290 300 302